GW2669 Weather Reports


time (UTC)temp
F
wind
direction
speed
knots
gust
knots
rain 1hr
in
rain 24hr
in
rain mn
in
humidity
%
barometer
mb
20260507203051 72 105 0.9 7.0 0.00 0.00 0.00 49 1016.1
20260507201550 70 72 3.5 11.3 0.00 0.00 0.00 52 1016.3
20260507200055 69 111 2.6 8.7 0.00 0.00 0.00 51 1016.6
20260507194553 69 113 4.3 8.7 0.00 0.00 0.00 52 1017.1
20260507193053 68 119 3.5 9.6 0.00 0.00 0.00 52 1017.4
20260507191547 68 0 2.6 8.7 0.00 0.00 0.00 52 1017.4
20260507190054 67 83 0.9 5.2 0.00 0.00 0.00 54 1017.7
20260507184551 66 62 1.7 7.0 0.00 0.00 0.00 54 1018.0
20260507183103 65 342 4.3 7.0 0.00 0.00 0.00 55 1018.3
20260507181559 64 0 0.0 7.0 0.00 0.00 0.00 60 1018.8
20260507180056 63 61 2.6 7.8 0.00 0.00 0.00 58 1019.2
20260507174548 63 0 0.9 6.1 0.00 0.00 0.00 57 1019.4
20260507173100 62 0 0.0 5.2 0.00 0.00 0.00 60 1019.8
20260507171555 62 67 1.7 7.0 0.00 0.00 0.00 61 1019.9
20260507170056 60 78 2.6 7.8 0.00 0.00 0.00 65 1020.1
20260507164552 60 55 2.6 5.2 0.00 0.00 0.00 64 1020.3
20260507163047 60 74 0.0 5.2 0.00 0.00 0.00 66 1020.4
20260507161556 59 65 0.9 7.8 0.00 0.00 0.00 67 1020.3
20260507160051 59 33 4.3 8.7 0.00 0.00 0.00 66 1020.2
20260507154556 58 74 0.9 6.1 0.00 0.00 0.00 70 1020.5
20260507153102 57 76 2.6 7.0 0.00 0.00 0.00 72 1020.6
20260507151555 57 76 4.3 8.7 0.00 0.00 0.00 73 1020.6
20260507144552 56 84 2.6 6.1 0.00 0.00 0.00 73 1020.6
20260507143105 56 108 1.7 2.6 0.00 0.00 0.00 73 1020.6
20260507141552 56 82 3.5 7.8 0.00 0.00 0.00 74 1020.6
20260507140054 57 71 0.0 7.8 0.00 0.00 0.00 70 1020.7
20260507134553 57 360 1.7 7.0 0.00 0.00 0.00 58 1020.5
20260507133051 57 309 4.3 7.8 0.00 0.00 0.00 56 1020.4
20260507131553 57 324 5.2 7.8 0.00 0.00 0.00 56 1020.4
20260507124559 56 306 1.7 6.1 0.00 0.00 0.00 54 1019.7
20260507123055 56 307 3.5 8.7 0.00 0.00 0.00 54 1019.7
20260507121558 56 305 6.1 9.6 0.00 0.00 0.00 54 1019.4
20260507120053 56 339 4.3 7.0 0.00 0.00 0.00 54 1019.3
20260507114559 56 300 5.2 9.6 0.00 0.00 0.00 54 1019.2
20260507113052 56 301 7.0 9.6 0.00 0.00 0.00 54 1019.2
20260507111559 55 309 6.1 8.7 0.00 0.00 0.00 55 1018.9
20260507110100 54 304 4.3 7.8 0.00 0.00 0.00 55 1019.0
20260507104600 55 294 4.3 9.6 0.00 0.00 0.00 55 1018.8
20260507103128 55 306 6.1 11.3 0.00 0.00 0.00 55 1018.7
20260507101551 55 324 5.2 12.2 0.00 0.00 0.00 54 1018.4
20260507100106 56 329 7.8 12.2 0.00 0.00 0.00 53 1018.0
20260507094603 56 331 8.7 13.0 0.00 0.00 0.00 52 1017.7
20260507093052 57 329 8.7 15.6 0.00 0.00 0.00 51 1017.2
20260507091554 58 336 9.6 14.8 0.00 0.00 0.00 49 1016.7
20260507090057 59 345 12.2 16.5 0.00 0.00 0.00 46 1016.5
20260507084553 60 337 9.6 13.0 0.00 0.00 0.00 39 1016.2
20260507083050 61 259 0.9 1.7 0.00 0.00 0.00 38 1015.4
20260507081552 61 0 0.0 0.0 0.00 0.00 0.00 37 1015.6
20260507080054 60 223 0.9 1.7 0.00 0.00 0.00 39 1015.6
20260507074600 59 203 2.6 4.3 0.00 0.00 0.00 41 1015.7
20260507073048 59 0 0.0 7.8 0.00 0.00 0.00 45 1015.7
20260507071557 63 0 0.0 3.5 0.00 0.00 0.00 33 1015.5
20260507070104 61 42 2.6 6.1 0.00 0.00 0.00 41 1015.5
20260507064559 63 0 0.0 0.0 0.00 0.00 0.00 33 1015.4
20260507063051 65 293 2.6 6.1 0.00 0.00 0.00 31 1015.2
20260507061550 62 0 0.0 1.7 0.00 0.00 0.00 35 1015.2
20260507054607 63 277 0.9 1.7 0.00 0.00 0.00 32 1015.1
20260507053102 66 275 0.9 1.7 0.00 0.00 0.00 28 1015.0
20260507051557 68 261 0.9 1.7 0.00 0.00 0.00 26 1015.0
20260507050055 68 0 0.0 0.0 0.00 0.00 0.00 25 1014.9
20260507044555 69 0 0.0 0.0 0.00 0.00 0.00 26 1014.7
20260507043049 69 0 0.0 1.7 0.00 0.00 0.00 29 1014.5
20260507041600 70 51 1.7 8.7 0.00 0.00 0.00 28 1014.5
20260507040054 68 0 0.0 5.2 0.00 0.00 0.00 31 1014.3
20260507034600 67 85 2.6 5.2 0.00 0.00 0.00 32 1014.3
20260507033055 69 88 0.0 1.7 0.00 0.00 0.00 34 1014.0
20260507031548 69 0 0.0 0.0 0.00 0.00 0.00 30 1013.6
20260507030056 73 34 0.9 4.3 0.00 0.00 0.00 22 1013.3
20260507024551 74 15 2.6 4.3 0.00 0.00 0.00 20 1013.0
20260507023052 73 9 1.7 2.6 0.00 0.00 0.00 21 1012.7
20260507021611 76 360 0.9 1.7 0.00 0.00 0.00 18 1012.4
20260507020106 79 317 1.7 3.5 0.00 0.00 0.00 16 1012.0
20260507014618 81 302 2.6 8.7 0.00 0.00 0.00 14 1011.8
20260507013053 83 305 5.2 9.6 0.00 0.00 0.00 12 1011.6
20260507011557 84 302 7.8 13.0 0.00 0.00 0.00 12 1011.3
20260507010048 85 288 7.0 13.9 0.00 0.00 0.00 11 1011.1
20260507004549 85 299 8.7 14.8 0.00 0.00 0.00 12 1010.9
20260507003051 86 300 9.6 14.8 0.00 0.00 0.00 13 1010.6
20260507001600 87 284 4.3 9.6 0.00 0.00 0.00 13 1010.6
20260507000111 87 319 7.0 14.8 0.00 0.00 0.00 13 1010.6
20260506234605 87 331 7.8 14.8 0.00 0.00 0.00 14 1010.6
20260506233050 86 298 13.0 17.4 0.00 0.00 0.00 13 1010.6
20260506231551 87 304 7.0 15.6 0.00 0.00 0.00 13 1010.4
20260506224555 87 298 9.6 15.6 0.00 0.00 0.00 13 1010.4
20260506223047 87 277 7.8 14.8 0.00 0.00 0.00 14 1010.3
20260506221559 87 277 9.6 20.9 0.00 0.00 0.00 14 1010.4
20260506220052 88 311 7.8 13.0 0.00 0.00 0.00 13 1010.3
20260506214547 87 302 6.1 11.3 0.00 0.00 0.00 14 1010.3
20260506213058 88 261 1.7 6.1 0.00 0.00 0.00 18 1010.6
20260506211553 86 244 4.3 11.3 0.00 0.00 0.00 15 1010.8
20260506210054 86 270 5.2 20.0 0.00 0.00 0.00 16 1011.2
20260506204552 86 0 0.9 9.6 0.00 0.00 0.00 18 1011.3